Regional Weather Roundup
Issued by NWS Mobile, AL

Home | Current Version | Previous Version | Text Only | Print | Product List | Glossary On
Versions: 1 2 3 4 5 6 7 8 9 10 11 12 13 14 15 16 17 18 19 20 21 22 23 24 25 26 27 28 29 30 31 32 33 34 35 36 37 38 39 40 41 42 43 44 45 46 47 48 49 50
000
ASUS44 KMOB 030210
RWRMOB
REGIONAL WEATHER ROUNDUP
NATIONAL WEATHER SERVICE MOBILE AL
900 PM CDT TUE SEP 02 2014

NOTE: "FAIR" INDICATES FEW OR NO CLOUDS BELOW 12,000 FEET WITH NO
      SIGNIFICANT WEATHER AND/OR OBSTRUCTIONS TO VISIBILITY.

  * THESE STATIONS ARE PART OF THE UNIVERSITY OF SOUTH ALABAMA
    MESONET AND ARE NOT UNDER NWS OR FAA QUALITY CONTROL.

ALZ061>064-030300-
COASTAL ALABAMA

CITY           SKY/WX    TMP DP  RH WIND       PRES   REMARKS
MOBILE REG APT MOCLDY    77  76  96 W3        30.05R
BROOKLEY FIELD PTCLDY    79  76  90 CALM      30.05R
USA CAMPUS*      N/A     77  75  94 CALM      30.03R
DOG RIVER*       N/A     81  77  89 W2        30.04R


CITY           SKY/WX    TMP DP  RH WIND       PRES   REMARKS
MOUNT VERNON*  NOT AVBL
SARALAND*      NOT AVBL
BAY MINETTE*   NOT AVBL
LOXLEY*          N/A     72  70  94 CALM      30.05R
ROBERTSDALE*     N/A    N/A N/A N/A CALM      30.04R
FAIRHOPE*        N/A     82  73  74 W5        30.03R
ELBERTA*         N/A     81  68  65 CALM      30.03R
FOLEY*         NOT AVBL
GRAND BAY*       N/A     79  75  89 CALM      30.02R
DAUPHIN ISLND* NOT AVBL
BON SCOUR NWR* NOT AVBL
GULF SHORES    MOCLDY    81  76  85 W3        30.03R

$$

ALZ051>060-030300-
INTERIOR SOUTHWEST AND SOUTH CENTRAL ALABAMA

CITY           SKY/WX    TMP DP  RH WIND       PRES   REMARKS
GREENVILLE     MOCLDY    78  72  81 W3        30.03R
EVERGREEN      MOCLDY    78  74  87 CALM      30.04R
CASTLEBERRY*   NOT AVBL
ATMORE*          N/A     75  75 100 CALM      30.05R
DIXIE*         NOT AVBL
ANDALUSIA/OPP  MOCLDY    85  74  69 NW6       30.03R
ANDALUSIA*     NOT AVBL
FLORALA APT    PTCLDY    79  73  82 CALM      30.06R
FLORALA*         N/A     79  72  78 CALM      30.01R

$$

FLZ001>006-030300-
WESTERN FLORIDA PANHANDLE

CITY           SKY/WX    TMP DP  RH WIND       PRES   REMARKS
PENSACOLA      MOCLDY    81  73  76 W7        30.03R
NAS PENSACOLA  MOCLDY    81  74  79 W3        30.03R
MILTON         MOCLDY    77  73  87 NW3       30.04R
WHTNG S FIELD  MOCLDY    79  75  87 CALM      30.04R


CITY           SKY/WX    TMP DP  RH WIND       PRES   REMARKS
WALNUT HILL*   NOT AVBL
JAY*           NOT AVBL
DUKE FIELD     MOCLDY    80  76  86 W2        30.04R
CRESTVIEW      PTCLDY    81  74  79 SW5       30.04R
VALPARAISO     MOCLDY    83  74  76 W1        30.03R
DESTIN         PTCLDY    86  76  71 CALM      30.03R HX  96

$$

MSZ076-079-030300-
INTERIOR SOUTHEAST MISSISSIPPI

CITY           SKY/WX    TMP DP  RH WIND       PRES   REMARKS
LEAKESVILLE*     N/A     77  73  88 W6          N/A
AGRICOLA*      NOT AVBL

$$

MARINE OBSERVATIONS

STATION/POSITION TIME  TEMP    WIND        PRES    WAVE
                       AIR SEA DIR/SP/G            HT/PER
                 (UTC) (F)     (DEG/KT/KT) (MB)    (FT/S)
PASCAGOULA       0200   85     240/  5/  7 1016.8R
PETIT BOIS ISLND 0200   84     240/  6/  7 1017.3R
GRAND BAY        0100   84     240/  5     1017.0S
KATRINA CUT      0100   85     220/  5     1016.9R
CEDAR POINT      0100   84     230/  6     1016.9R
E DAUPHIN ISLAND 0100   85     200/  3/  5 1016.4R
MIDDLE BAY LIGHT 0100   85     240/  7     1015.9R
USCG MOBILE BAY  0200   82 87  320/  2/  3 1016.1R
STATE DOCKS      0200   82 88              1016.9R
MEAHER PARK      0100   80     360/  1     1016.3R
WEEKS BAY        0100   82                   N/A
FORT MORGAN      0200   84     240/  9/ 10 1016.6R
12 S ORANGE BCH  0200   85 86  210/  6/  8 1016.7R   2/ 7
PENSACOLA BAY    0200   84 88  290/  4/  7 1017.0R
67 S FORT MORGAN 0100   83                 1016.6R

$$

SELECTED LOCATIONS ACROSS THE REGION

CITY           SKY/WX    TMP DP  RH WIND       PRES   REMARKS
NEW ORLEANS    CLOUDY    84  74  71 S5        30.04R
GULFPORT       CLOUDY    80  75  84 NW3       30.04R
PASCAGOULA AP  MOCLDY    77  75  93 CALM      30.04R
PASCAGOULA*      N/A     81  75  83 CALM      30.03R
HATTIESBURG    RAIN      75  71  87 NW12G17   30.12R
LAUREL         CLOUDY   N/A N/A N/A SW3       30.10R THUNDER
MERIDIAN       LGT RAIN  74  71  91 SW9       30.01F
JACKSON        LGT RAIN  73  71  93 S9        30.00F
MONTGOMERY     PTCLDY    79  70  74 SW7       30.02R
TROY           PTCLDY    79  71  76 W3        30.03R
KINSTON*       NOT AVBL
GENEVA*          N/A     82  73  74 CALM      30.04R
ASHFORD*       NOT AVBL
DOTHAN         PTCLDY    81  71  71 W5        30.05R
PANAMA CITY    CLEAR     82  75  79 CALM      30.02R

$$




USA.gov is the U.S. government's official web portal to all federal, state and local government web resources and services.